PEGASUS DEB

Satellite information

Favourite Embed

Satellite Type and Status

DEBRISIN ORBIT

Key statistics

Satellite PEGASUS DEB at a glance.

Uptime

11490

Days in orbit

Revolutions

≈ 14.8

Per day

Orbit

LEO

Low Earth Orbit

Inclination

81.5

Latest

Satellite identification and parameters

Extended collection of information and parameters for PEGASUS DEB.

Object identification

Identified? True

Debris? True

Object name: PEGASUS DEB

International designator: 1994-029LN

Object number (NORAD): 24239

Object ID (CCSDS): 24239

Country: UNITED STATES OF AMERICA (US)

Current information (Y/N): Y

RCS size: SMALL

Orbital parameters

Period: 97.572 minutes

Inclination: 81.5137 deg

SMA: 7020.661 km

Apoapsis: 750.275 km

Periapsis: 534.777 km

RAAN: 40.3814 deg

Eccentricy: 0.01534743

Argument of periapsis: 212.8076 deg

Mean anomaly: 146.3535 deg

Mean motion: 14.75827933 rev/day

Mean motion (dot): 0.00011156 rev/day2

B* drag term: 0.001337798 1/REarth

Two-line elements (TLE)

Creation date: Nov. 1, 2025, 7:40 p.m.

Reference frame: TEME

Reference center: EARTH

Epoch: Nov. 1, 2025, 2:13 p.m. UTC

TLE line 0: 0 PEGASUS DEB

TLE line 1: 1 24239U 94029LN 25305.59270918 .00011156 00000-0 13378-2 0 9998

TLE line 2: 2 24239 81.5137 40.3814 0153474 212.8076 146.3535 14.75827933542622

Live tracking on map

Real-time ground track for satellite PEGASUS DEB.

In-orbit conjunctions

A list of the most updated potential collisions computed for object PEGASUS DEB.

Target Orbit TCA Probability of collision Miss distance Type
FENGYUN 1C DEB SSO 2025-01-08 01:50:51 0.0001480078 172.0 (m) DEBRIS
COSMOS 2251 DEB LEO 2024-11-13 07:15:46 0.00028621 746.0 (m) DEBRIS
CZ-6A DEB SSO 2024-09-10 15:57:37 0.0001115486 79.0 (m) DEBRIS
BLACK ARROW R/B LEO 2024-06-29 22:13:54 0.0002768674 606.0 (m) ROCKET BODY

Associated space launch

PEGASUS DEB was lifted into orbit during the mission ‘Pegasus HAPS | Space Test Experiments Platform 2 (STEP-2)’, on board a Pegasus HAPS space rocket.

The launch took place on May 19, 1994, 5:03 p.m. from Edwards Air Force Base.

For more information about the launch, click the button.

Launch to space Pegasus HAPS | Space Test Experiments Platform 2 (STEP-2)
Pegasus HAPS | Space Test Experiments Platform 2 (STEP-2)

Agency: N/A

Status: Launch Successful

Launch date: May 19, 1994, 5:03 p.m. UTC

Rocket: Pegasus HAPS

Launch pad: Edwards Air Force Base

Location: Air launch to orbit

...

Latest news about this satellite

There are no fresh news available about this satellite. Check back as we update our databases every day.


Newsletter sign-up

Weekly statistics, charts and insights to help you stay on top of the space industry.